Weather History for St. Joseph, MO

Change the Weather History Date:

Sunday, April 6, 2014

  Actual Average Record
Temperature  
Mean Temperature 54 °F 51 °F  
Max Temperature 64 °F 63 °F 91 °F (1954)
Min Temperature 44 °F 39 °F 18 °F (1982)
Degree Days  
Heating Degree Days 11 14  
Month to date heating degree days 126 89  
Since 1 July heating degree days 5892 5082  
Cooling Degree Days 0 0  
Month to date cooling degree days 0 0  
Year to date cooling degree days 0 2  
Growing Degree Days 4 (Base 50)    
Moisture  
Dew Point 34 °F    
Average Humidity 54    
Maximum Humidity 76    
Minimum Humidity 31    
Precipitation  
Precipitation 0.00 in 0.10 in 0.83 in (1901)
Month to date precipitation 1.15 0.52  
Year to date precipitation 2.38 4.26  
Sea Level Pressure  
Sea Level Pressure 29.95 in    
Wind  
Wind Speed 6 mph (SE)    
Max Wind Speed 15 mph    
Max Gust Speed 18 mph    
Visibility 10 miles    
Events      
T = Trace of Precipitation, MM = Missing Value Source: NWS Daily Summary

Daily Weather History Graph

Daily Weather History Graph

Search for Another Location

Airport:

Trip Planner

Search our weather history database for the weather conditions in past years. The results will help you decide how hot, cold, wet, or windy it might be!

Date:

Astronomy

Apr. 06, 2014 Rise Set
Actual Time 6:55 AM CDT 7:48 PM CDT
Civil Twilight 6:28 AM CDT 8:16 PM CDT
Nautical Twilight 5:55 AM CDT 8:48 PM CDT
Astronomical Twilight 5:22 AM CDT 9:22 PM CDT
Moon 11:57 AM CDT (4/6) 1:45 AM CDT (4/6)
Length of Visible Light 13h 47m
Length of Day
12h 53m
Waxing Crescent, 44% of the Moon is Illuminated
Apr 6
Waxing Crescent
Apr 7
First Quarter
Apr 15
Full
Apr 22
Last Quarter
Apr 29
New

Hourly Weather History & Observations

Time (CDT) Temp. Windchill Dew Point Humidity Pressure Visibility Wind Dir Wind Speed Gust Speed Precip Events Conditions
12:53 AM 46.0 °F 43.9 °F 32.0 °F 58% 30.06 in 10.0 mi SE 4.6 mph - N/A   Clear
1:53 AM 44.1 °F 40.1 °F 35.1 °F 71% 30.06 in 10.0 mi South 6.9 mph - N/A   Mostly Cloudy
2:53 AM 46.9 °F - 32.0 °F 56% 30.05 in 10.0 mi South 4.6 mph - N/A   Overcast
3:53 AM 46.9 °F - 32.0 °F 56% 30.03 in 10.0 mi SSE 6.9 mph - N/A   Overcast
4:53 AM 46.0 °F 44.8 °F 32.0 °F 58% 30.02 in 10.0 mi SE 3.5 mph - N/A   Overcast
5:53 AM 46.9 °F - 32.0 °F 56% 30.01 in 10.0 mi SE 3.5 mph - N/A   Overcast
6:53 AM 45.0 °F 43.5 °F 34.0 °F 65% 30.02 in 10.0 mi NE 3.5 mph - N/A   Overcast
7:53 AM 44.1 °F 41.5 °F 36.0 °F 73% 30.02 in 10.0 mi NW 4.6 mph - N/A   Overcast
8:53 AM 46.9 °F - 36.0 °F 66% 30.01 in 10.0 mi NNE 6.9 mph - N/A   Overcast
9:53 AM 51.1 °F - 37.0 °F 59% 29.97 in 10.0 mi North 6.9 mph - N/A   Overcast
10:53 AM 53.1 °F - 34.0 °F 48% 29.98 in 10.0 mi South 6.9 mph - N/A   Overcast
11:53 AM 55.9 °F - 34.0 °F 44% 29.98 in 10.0 mi South 6.9 mph - N/A   Overcast
12:53 PM 57.9 °F - 33.1 °F 39% 29.96 in 10.0 mi ESE 4.6 mph - N/A   Overcast
1:53 PM 59.0 °F - 33.1 °F 38% 29.92 in 10.0 mi East 5.8 mph - N/A   Overcast
2:53 PM 59.0 °F - 34.0 °F 39% 29.91 in 10.0 mi SSW 3.5 mph - N/A   Overcast
3:53 PM 62.1 °F - 35.1 °F 37% 29.88 in 10.0 mi Variable 3.5 mph - N/A   Mostly Cloudy
4:53 PM 64.0 °F - 33.1 °F 31% 29.85 in 10.0 mi East 13.8 mph 18.4 mph N/A   Clear
5:53 PM 62.1 °F - 33.1 °F 34% 29.86 in 10.0 mi SE 11.5 mph - N/A   Overcast
6:53 PM 60.1 °F - 33.1 °F 36% 29.86 in 10.0 mi ESE 5.8 mph - N/A   Overcast
7:53 PM 57.0 °F - 34.0 °F 42% 29.86 in 10.0 mi ESE 5.8 mph - N/A   Overcast
8:53 PM 55.9 °F - 35.1 °F 45% 29.86 in 10.0 mi ESE 5.8 mph - N/A   Overcast
9:53 PM 53.1 °F - 35.1 °F 50% 29.86 in 10.0 mi SE 6.9 mph - N/A   Overcast
10:53 PM 48.9 °F - 35.1 °F 59% 29.86 in 10.0 mi Calm Calm - N/A   Clear
11:53 PM 45.0 °F 43.5 °F 37.0 °F 74% 29.86 in 10.0 mi NNW 3.5 mph - N/A   Scattered Clouds